Time,TemperatureF,DewpointF,PressureIn,WindDirection,WindDirectionDegrees,WindSpeedMPH,WindSpeedGustMPH,Humidity,HourlyPrecipIn,Conditions,Clouds,dailyrainin,SoftwareType,DateUTC
2013-03-12 00:02:00,18.0,11.0,-100.00,NW,305,24.0,32.0,72,-99.99,,,-99.99,,2013-03-12 06:02:00,
2013-03-12 00:12:00,18.0,11.0,-100.00,NW,305,24.0,32.0,72,-99.99,,,-99.99,,2013-03-12 06:12:00,
2013-03-12 00:22:00,18.0,11.0,-100.00,WNW,300,26.0,34.0,71,-99.99,,,-99.99,,2013-03-12 06:22:00,
2013-03-12 00:32:00,18.0,11.0,-100.00,WNW,300,25.0,29.0,74,-99.99,,,-99.99,,2013-03-12 06:32:00,
2013-03-12 00:42:00,18.0,11.0,-100.00,WNW,300,25.0,29.0,74,-99.99,,,-99.99,,2013-03-12 06:42:00,
2013-03-12 00:52:00,18.0,11.0,-100.00,WNW,300,25.0,29.0,74,-99.99,,,-99.99,,2013-03-12 06:52:00,
2013-03-12 01:02:00,18.0,12.0,-100.00,NW,305,17.0,29.0,76,-99.99,,,-99.99,,2013-03-12 07:02:00,
2013-03-12 01:12:00,18.0,12.0,-100.00,NW,305,17.0,29.0,76,-99.99,,,-99.99,,2013-03-12 07:12:00,
2013-03-12 01:22:00,18.0,11.0,-100.00,WNW,295,18.0,29.0,75,-99.99,,,-99.99,,2013-03-12 07:22:00,
2013-03-12 01:32:00,17.0,11.0,-100.00,WNW,300,19.0,24.0,75,-99.99,,,-99.99,,2013-03-12 07:32:00,
2013-03-12 01:42:00,17.0,11.0,-100.00,WNW,300,17.0,26.0,76,-99.99,,,-99.99,,2013-03-12 07:42:00,
2013-03-12 01:52:00,17.0,11.0,-100.00,WNW,300,17.0,26.0,76,-99.99,,,-99.99,,2013-03-12 07:52:00,
2013-03-12 02:02:00,17.0,11.0,-100.00,WNW,295,17.0,27.0,76,-99.99,,,-99.99,,2013-03-12 08:02:00,
2013-03-12 02:13:00,17.0,11.0,-100.00,WNW,295,17.0,27.0,76,-99.99,,,-99.99,,2013-03-12 08:13:00,
2013-03-12 02:22:00,17.0,10.0,-100.00,WNW,300,24.0,29.0,76,-99.99,,,-99.99,,2013-03-12 08:22:00,
2013-03-12 02:33:00,16.0,10.0,-100.00,WNW,300,22.0,27.0,75,-99.99,,,-99.99,,2013-03-12 08:33:00,
2013-03-12 02:42:00,16.0,10.0,-100.00,WNW,295,24.0,29.0,74,-99.99,,,-99.99,,2013-03-12 08:42:00,
2013-03-12 02:52:00,16.0,10.0,-100.00,WNW,295,24.0,29.0,74,-99.99,,,-99.99,,2013-03-12 08:52:00,
2013-03-12 03:03:00,16.0,9.0,-100.00,WNW,300,20.0,29.0,74,-99.99,,,-99.99,,2013-03-12 09:03:00,
2013-03-12 03:12:00,16.0,9.0,-100.00,WNW,300,20.0,29.0,74,-99.99,,,-99.99,,2013-03-12 09:12:00,
2013-03-12 03:22:00,16.0,9.0,-100.00,WNW,290,23.0,29.0,73,-99.99,,,-99.99,,2013-03-12 09:22:00,
2013-03-12 03:32:00,16.0,10.0,-100.00,WNW,295,22.0,30.0,74,-99.99,,,-99.99,,2013-03-12 09:32:00,
2013-03-12 03:42:00,16.0,9.0,-100.00,NW,305,22.0,32.0,74,-99.99,,,-99.99,,2013-03-12 09:42:00,
2013-03-12 03:52:00,16.0,9.0,-100.00,NW,305,22.0,32.0,74,-99.99,,,-99.99,,2013-03-12 09:52:00,
2013-03-12 04:02:00,16.0,9.0,-100.00,NW,305,25.0,30.0,73,-99.99,,,-99.99,,2013-03-12 10:02:00,
2013-03-12 04:12:00,16.0,9.0,-100.00,NW,305,25.0,30.0,73,-99.99,,,-99.99,,2013-03-12 10:12:00,
2013-03-12 04:22:00,16.0,9.0,-100.00,WNW,300,24.0,34.0,72,-99.99,,,-99.99,,2013-03-12 10:22:00,
2013-03-12 04:32:00,15.0,8.0,-100.00,WNW,290,26.0,30.0,72,-99.99,,,-99.99,,2013-03-12 10:32:00,
2013-03-12 04:42:00,15.0,8.0,-100.00,WNW,295,22.0,30.0,72,-99.99,,,-99.99,,2013-03-12 10:42:00,
2013-03-12 04:52:00,15.0,8.0,-100.00,WNW,295,22.0,30.0,72,-99.99,,,-99.99,,2013-03-12 10:52:00,
2013-03-12 05:02:00,15.0,8.0,-100.00,WNW,300,20.0,29.0,72,-99.99,,,-99.99,,2013-03-12 11:02:00,
2013-03-12 05:12:00,15.0,8.0,-100.00,WNW,300,20.0,29.0,72,-99.99,,,-99.99,,2013-03-12 11:12:00,
2013-03-12 05:22:00,15.0,8.0,-100.00,WNW,300,21.0,28.0,72,-99.99,,,-99.99,,2013-03-12 11:22:00,
2013-03-12 05:32:00,14.0,7.0,-100.00,NW,305,21.0,26.0,72,-99.99,,,-99.99,,2013-03-12 11:32:00,
2013-03-12 05:42:00,14.0,7.0,-100.00,NW,305,21.0,26.0,72,-99.99,,,-99.99,,2013-03-12 11:42:00,
2013-03-12 05:52:00,14.0,7.0,-100.00,NW,305,21.0,26.0,72,-99.99,,,-99.99,,2013-03-12 11:52:00,
2013-03-12 06:02:00,14.0,7.0,-100.00,WNW,300,19.0,24.0,72,-99.99,,,-99.99,,2013-03-12 12:02:00,
2013-03-12 06:12:00,14.0,7.0,-100.00,WNW,300,19.0,24.0,72,-99.99,,,-99.99,,2013-03-12 12:12:00,
2013-03-12 06:22:00,14.0,7.0,-100.00,NW,310,16.0,24.0,72,-99.99,,,-99.99,,2013-03-12 12:22:00,
2013-03-12 06:32:00,14.0,6.0,-100.00,NW,305,18.0,24.0,72,-99.99,,,-99.99,,2013-03-12 12:32:00,
2013-03-12 06:42:00,13.0,6.0,-100.00,NW,305,15.0,22.0,72,-99.99,,,-99.99,,2013-03-12 12:42:00,
2013-03-12 06:52:00,13.0,6.0,-100.00,NW,305,15.0,22.0,72,-99.99,,,-99.99,,2013-03-12 12:52:00,
2013-03-12 07:02:00,13.0,6.0,-100.00,WNW,295,17.0,26.0,72,-99.99,,,-99.99,,2013-03-12 13:02:00,
2013-03-12 07:12:00,13.0,6.0,-100.00,WNW,295,17.0,26.0,72,-99.99,,,-99.99,,2013-03-12 13:12:00,
2013-03-12 07:22:00,13.0,6.0,-100.00,WNW,300,19.0,24.0,72,-99.99,,,-99.99,,2013-03-12 13:22:00,
2013-03-12 07:32:00,13.0,6.0,-100.00,WNW,300,15.0,22.0,73,-99.99,,,-99.99,,2013-03-12 13:32:00,
2013-03-12 07:42:00,13.0,6.0,-100.00,WNW,295,17.0,21.0,73,-99.99,,,-99.99,,2013-03-12 13:42:00,
2013-03-12 07:52:00,13.0,6.0,-100.00,WNW,295,17.0,21.0,73,-99.99,,,-99.99,,2013-03-12 13:52:00,
2013-03-12 08:02:00,13.0,6.0,-100.00,WNW,295,17.0,22.0,73,-99.99,,,-99.99,,2013-03-12 14:02:00,
2013-03-12 08:12:00,13.0,6.0,-100.00,WNW,295,17.0,22.0,73,-99.99,,,-99.99,,2013-03-12 14:12:00,
2013-03-12 08:22:00,13.0,6.0,-100.00,WNW,300,16.0,21.0,73,-99.99,,,-99.99,,2013-03-12 14:22:00,
2013-03-12 08:33:00,13.0,6.0,-100.00,WNW,300,17.0,21.0,73,-99.99,,,-99.99,,2013-03-12 14:33:00,
2013-03-12 08:42:00,13.0,6.0,-100.00,WNW,295,16.0,22.0,73,-99.99,,,-99.99,,2013-03-12 14:42:00,
2013-03-12 08:53:00,13.0,6.0,-100.00,WNW,295,16.0,22.0,73,-99.99,,,-99.99,,2013-03-12 14:53:00,
2013-03-12 09:02:00,14.0,7.0,-100.00,WNW,295,17.0,22.0,72,-99.99,,,-99.99,,2013-03-12 15:02:00,
2013-03-12 09:12:00,14.0,7.0,-100.00,WNW,295,17.0,22.0,72,-99.99,,,-99.99,,2013-03-12 15:12:00,
2013-03-12 09:22:00,14.0,7.0,-100.00,WNW,290,16.0,22.0,71,-99.99,,,-99.99,,2013-03-12 15:22:00,
2013-03-12 09:32:00,15.0,7.0,-100.00,NW,305,17.0,21.0,70,-99.99,,,-99.99,,2013-03-12 15:32:00,
2013-03-12 09:42:00,16.0,8.0,-100.00,NW,305,14.0,24.0,69,-99.99,,,-99.99,,2013-03-12 15:42:00,
2013-03-12 09:52:00,16.0,8.0,-100.00,NW,305,14.0,24.0,69,-99.99,,,-99.99,,2013-03-12 15:52:00,
2013-03-12 10:02:00,17.0,8.0,-100.00,WNW,300,14.0,20.0,67,-99.99,,,-99.99,,2013-03-12 16:02:00,
2013-03-12 10:12:00,17.0,8.0,-100.00,WNW,300,14.0,20.0,67,-99.99,,,-99.99,,2013-03-12 16:12:00,
2013-03-12 10:22:00,17.0,8.0,-100.00,WNW,300,14.0,18.0,66,-99.99,,,-99.99,,2013-03-12 16:22:00,
2013-03-12 10:33:00,18.0,8.0,-100.00,NW,305,15.0,20.0,64,-99.99,,,-99.99,,2013-03-12 16:33:00,
2013-03-12 10:43:00,19.0,8.0,-100.00,WNW,300,15.0,21.0,63,-99.99,,,-99.99,,2013-03-12 16:43:00,
2013-03-12 10:52:00,19.0,8.0,-100.00,WNW,300,15.0,21.0,63,-99.99,,,-99.99,,2013-03-12 16:52:00,
2013-03-12 11:03:00,19.0,8.0,-100.00,NW,315,16.0,21.0,60,-99.99,,,-99.99,,2013-03-12 17:03:00,
2013-03-12 11:13:00,19.0,8.0,-100.00,NW,315,16.0,21.0,60,-99.99,,,-99.99,,2013-03-12 17:13:00,
2013-03-12 11:22:00,20.0,8.0,-100.00,NW,310,14.0,19.0,60,-99.99,,,-99.99,,2013-03-12 17:22:00,
2013-03-12 11:34:00,20.0,8.0,-100.00,NW,325,18.0,22.0,58,-99.99,,,-99.99,,2013-03-12 17:34:00,
2013-03-12 11:43:00,20.0,8.0,-100.00,NW,315,17.0,21.0,58,-99.99,,,-99.99,,2013-03-12 17:43:00,
2013-03-12 11:53:00,20.0,8.0,-100.00,NW,315,17.0,21.0,58,-99.99,,,-99.99,,2013-03-12 17:53:00,
2013-03-12 12:03:00,21.0,9.0,-100.00,NW,315,14.0,20.0,58,-99.99,,,-99.99,,2013-03-12 18:03:00,
2013-03-12 12:13:00,21.0,9.0,-100.00,NW,315,14.0,20.0,58,-99.99,,,-99.99,,2013-03-12 18:13:00,
2013-03-12 12:23:00,21.0,9.0,-100.00,NW,315,16.0,23.0,57,-99.99,,,-99.99,,2013-03-12 18:23:00,
2013-03-12 12:33:00,22.0,9.0,-100.00,NW,315,14.0,20.0,57,-99.99,,,-99.99,,2013-03-12 18:33:00,
2013-03-12 12:42:00,22.0,10.0,-100.00,NNW,330,13.0,18.0,58,-99.99,,,-99.99,,2013-03-12 18:42:00,
2013-03-12 12:53:00,22.0,10.0,-100.00,NNW,330,13.0,18.0,58,-99.99,,,-99.99,,2013-03-12 18:53:00,
2013-03-12 13:03:00,23.0,9.0,-100.00,NW,315,17.0,21.0,55,-99.99,,,-99.99,,2013-03-12 19:03:00,
2013-03-12 13:13:00,23.0,9.0,-100.00,NW,315,17.0,21.0,55,-99.99,,,-99.99,,2013-03-12 19:13:00,
2013-03-12 13:23:00,23.0,9.0,-100.00,NW,320,14.0,19.0,55,-99.99,,,-99.99,,2013-03-12 19:23:00,
2013-03-12 13:33:00,24.0,10.0,-100.00,NW,315,13.0,20.0,54,-99.99,,,-99.99,,2013-03-12 19:33:00,
2013-03-12 13:43:00,24.0,10.0,-100.00,NW,315,13.0,20.0,54,-99.99,,,-99.99,,2013-03-12 19:43:00,
2013-03-12 13:53:00,24.0,10.0,-100.00,NW,315,13.0,20.0,54,-99.99,,,-99.99,,2013-03-12 19:53:00,
2013-03-12 14:02:00,24.0,9.0,-100.00,NW,320,13.0,18.0,51,-99.99,,,-99.99,,2013-03-12 20:02:00,
2013-03-12 14:12:00,24.0,9.0,-100.00,NW,320,13.0,18.0,51,-99.99,,,-99.99,,2013-03-12 20:12:00,
2013-03-12 14:23:00,25.0,10.0,-100.00,NW,315,10.0,14.0,51,-99.99,,,-99.99,,2013-03-12 20:23:00,
2013-03-12 14:32:00,26.0,9.0,-100.00,NW,315,7.0,14.0,49,-99.99,,,-99.99,,2013-03-12 20:32:00,
2013-03-12 14:42:00,26.0,8.0,-100.00,NW,310,9.0,11.0,47,-99.99,,,-99.99,,2013-03-12 20:42:00,
2013-03-12 14:52:00,26.0,8.0,-100.00,NW,310,9.0,11.0,47,-99.99,,,-99.99,,2013-03-12 20:52:00,
2013-03-12 15:02:00,26.0,8.0,-100.00,NNW,330,6.0,14.0,46,-99.99,,,-99.99,,2013-03-12 21:02:00,
2013-03-12 15:13:00,26.0,8.0,-100.00,NNW,330,6.0,14.0,46,-99.99,,,-99.99,,2013-03-12 21:13:00,
2013-03-12 15:22:00,27.0,9.0,-100.00,NNW,330,11.0,15.0,47,-99.99,,,-99.99,,2013-03-12 21:22:00,
2013-03-12 15:33:00,26.0,8.0,-100.00,NNW,335,7.0,14.0,45,-99.99,,,-99.99,,2013-03-12 21:33:00,
2013-03-12 15:43:00,27.0,8.0,-100.00,NW,305,8.0,12.0,44,-99.99,,,-99.99,,2013-03-12 21:43:00,
2013-03-12 15:52:00,27.0,8.0,-100.00,NW,305,8.0,12.0,44,-99.99,,,-99.99,,2013-03-12 21:52:00,
2013-03-12 16:02:00,27.0,8.0,-100.00,NW,305,7.0,12.0,43,-99.99,,,-99.99,,2013-03-12 22:02:00,
2013-03-12 16:12:00,27.0,8.0,-100.00,NW,305,7.0,12.0,43,-99.99,,,-99.99,,2013-03-12 22:12:00,
2013-03-12 16:22:00,28.0,8.0,-100.00,NNW,330,7.0,10.0,43,-99.99,,,-99.99,,2013-03-12 22:22:00,
2013-03-12 16:33:00,27.0,8.0,-100.00,North,350,5.0,10.0,42,-99.99,,,-99.99,,2013-03-12 22:33:00,
2013-03-12 16:43:00,28.0,7.0,-100.00,NNW,340,7.0,9.0,41,-99.99,,,-99.99,,2013-03-12 22:43:00,
2013-03-12 16:52:00,28.0,7.0,-100.00,NNW,340,7.0,9.0,41,-99.99,,,-99.99,,2013-03-12 22:52:00,
2013-03-12 17:02:00,28.0,7.0,-100.00,NNW,345,7.0,9.0,41,-99.99,,,-99.99,,2013-03-12 23:02:00,
2013-03-12 17:12:00,28.0,7.0,-100.00,NNW,345,7.0,9.0,41,-99.99,,,-99.99,,2013-03-12 23:12:00,
2013-03-12 17:22:00,28.0,7.0,-100.00,North,0,6.0,9.0,41,-99.99,,,-99.99,,2013-03-12 23:22:00,
2013-03-12 17:34:00,28.0,7.0,-100.00,NNW,340,4.0,7.0,39,-99.99,,,-99.99,,2013-03-12 23:34:00,
2013-03-12 17:43:00,28.0,7.0,-100.00,NW,325,4.0,7.0,40,-99.99,,,-99.99,,2013-03-12 23:43:00,
2013-03-12 17:52:00,28.0,7.0,-100.00,NW,325,4.0,7.0,40,-99.99,,,-99.99,,2013-03-12 23:52:00,
2013-03-12 18:03:00,27.0,6.0,-100.00,North,0,4.0,6.0,40,-99.99,,,-99.99,,2013-03-13 00:03:00,
2013-03-12 18:12:00,27.0,6.0,-100.00,North,0,4.0,6.0,40,-99.99,,,-99.99,,2013-03-13 00:12:00,
2013-03-12 18:23:00,27.0,8.0,-100.00,NE,40,4.0,8.0,44,-99.99,,,-99.99,,2013-03-13 00:23:00,
2013-03-12 18:33:00,26.0,8.0,-100.00,ENE,60,6.0,7.0,46,-99.99,,,-99.99,,2013-03-13 00:33:00,
2013-03-12 18:42:00,25.0,8.0,-100.00,NE,55,4.0,6.0,47,-99.99,,,-99.99,,2013-03-13 00:42:00,
2013-03-12 18:52:00,25.0,8.0,-100.00,NE,55,4.0,6.0,47,-99.99,,,-99.99,,2013-03-13 00:52:00,
2013-03-12 19:03:00,24.0,8.0,-100.00,ENE,75,4.0,4.0,50,-99.99,,,-99.99,,2013-03-13 01:03:00,
2013-03-12 19:12:00,24.0,8.0,-100.00,ENE,75,4.0,4.0,50,-99.99,,,-99.99,,2013-03-13 01:12:00,
2013-03-12 19:22:00,24.0,8.0,-100.00,East,80,2.0,4.0,51,-99.99,,,-99.99,,2013-03-13 01:22:00,
2013-03-12 19:32:00,22.0,8.0,-100.00,ESE,110,0.0,2.0,53,-99.99,,,-99.99,,2013-03-13 01:32:00,
2013-03-12 19:42:00,21.0,8.0,-100.00,East,100,1.0,2.0,57,-99.99,,,-99.99,,2013-03-13 01:42:00,
2013-03-12 19:53:00,21.0,8.0,-100.00,East,100,1.0,2.0,57,-99.99,,,-99.99,,2013-03-13 01:53:00,
2013-03-12 20:02:00,20.0,9.0,-100.00,East,95,1.0,2.0,61,-99.99,,,-99.99,,2013-03-13 02:02:00,
2013-03-12 20:12:00,20.0,9.0,-100.00,East,95,1.0,2.0,61,-99.99,,,-99.99,,2013-03-13 02:12:00,
2013-03-12 20:22:00,20.0,9.0,-100.00,SE,130,0.0,2.0,62,-99.99,,,-99.99,,2013-03-13 02:22:00,
2013-03-12 20:32:00,20.0,10.0,-100.00,ESE,120,2.0,2.0,65,-99.99,,,-99.99,,2013-03-13 02:32:00,
2013-03-12 20:43:00,19.0,10.0,-100.00,SE,125,3.0,4.0,67,-99.99,,,-99.99,,2013-03-13 02:43:00,
2013-03-12 20:52:00,19.0,10.0,-100.00,SE,125,3.0,4.0,67,-99.99,,,-99.99,,2013-03-13 02:52:00,
2013-03-12 21:02:00,19.0,11.0,-100.00,SE,130,3.0,4.0,70,-99.99,,,-99.99,,2013-03-13 03:02:00,
2013-03-12 21:12:00,19.0,11.0,-100.00,SE,130,3.0,4.0,70,-99.99,,,-99.99,,2013-03-13 03:12:00,
2013-03-12 21:22:00,20.0,12.0,-100.00,SE,135,4.0,6.0,70,-99.99,,,-99.99,,2013-03-13 03:22:00,
2013-03-12 21:32:00,20.0,12.0,-100.00,SE,130,6.0,6.0,70,-99.99,,,-99.99,,2013-03-13 03:32:00,
2013-03-12 21:42:00,20.0,12.0,-100.00,SE,130,4.0,5.0,71,-99.99,,,-99.99,,2013-03-13 03:42:00,
2013-03-12 21:52:00,20.0,12.0,-100.00,SE,130,4.0,5.0,71,-99.99,,,-99.99,,2013-03-13 03:52:00,
2013-03-12 22:03:00,20.0,12.0,-100.00,ESE,110,6.0,6.0,71,-99.99,,,-99.99,,2013-03-13 04:03:00,
2013-03-12 22:13:00,20.0,12.0,-100.00,ESE,110,6.0,6.0,71,-99.99,,,-99.99,,2013-03-13 04:13:00,
2013-03-12 22:22:00,20.0,12.0,-100.00,ESE,115,5.0,6.0,70,-99.99,,,-99.99,,2013-03-13 04:22:00,
2013-03-12 22:32:00,20.0,12.0,-100.00,ESE,115,7.0,9.0,71,-99.99,,,-99.99,,2013-03-13 04:32:00,
2013-03-12 22:43:00,20.0,12.0,-100.00,ESE,120,7.0,9.0,70,-99.99,,,-99.99,,2013-03-13 04:43:00,
2013-03-12 22:52:00,20.0,12.0,-100.00,ESE,120,7.0,9.0,70,-99.99,,,-99.99,,2013-03-13 04:52:00,
2013-03-12 23:02:00,20.0,12.0,-100.00,ESE,120,6.0,9.0,68,-99.99,,,-99.99,,2013-03-13 05:02:00,
2013-03-12 23:12:00,20.0,12.0,-100.00,ESE,120,6.0,9.0,68,-99.99,,,-99.99,,2013-03-13 05:12:00,
2013-03-12 23:22:00,21.0,12.0,-100.00,ESE,120,6.0,8.0,68,-99.99,,,-99.99,,2013-03-13 05:22:00,
2013-03-12 23:32:00,21.0,12.0,-100.00,ESE,120,8.0,9.0,66,-99.99,,,-99.99,,2013-03-13 05:32:00,
2013-03-12 23:42:00,22.0,12.0,-100.00,SE,130,7.0,10.0,65,-99.99,,,-99.99,,2013-03-13 05:42:00,
2013-03-12 23:52:00,22.0,12.0,-100.00,SE,130,7.0,10.0,65,-99.99,,,-99.99,,2013-03-13 05:52:00,